SCOUT A DEB, 3591

Orbit data source: Space-Track

SCOUT A DEB, 3591 is space debris in LEO originally from a launch on Thu, 19 May 1966 UTC launched from the Air Force Western Test Range (AFWTR). Debris objects in space refer to the collection of defunct objects orbiting the Earth. Examples of debris include non-operational satellites, rocket bodies, and fragments generated from explosions, collisions, or faulty payload assembly.

Loading next visibility...
Identifier
3591, 1966-041E
Orbit
LEO
Country
Flag of USUS
Related business
Manufacturer
Unknown
Mission
Spacecraft
Bus & Motor
Unknown
Mass
Unknown
Launch date (UTC)
1966-05-19 (59 years ago)
Launch vehicle
Unknown
Launch site
Air Force Western Test Range (AFWTR)
Object type
Payload
Rocket body
Debris
Shape & HBR
Unknown shape, 0.2 m
Radar Cross Section
Small (<0.1 m²)

Expand to show TLE details & history
Last TLE update: 18 hours ago

TLE from 18 hours ago
0 SCOUT A DEB
1 03591U 66041E   25287.92281992  .00000614  00000-0  37009-3 0  9994
2 03591  90.2136  76.6389 0088072 187.3756 172.6137 14.03927573 32971
Epoch: 2025-10-14T22:08Z
TLE epoch observation values (Epoch: 2025-10-14T22:08:51.641Z)
Latitude
0.00003°
Longitude
80.71944°
Altitude
946.676 km
Speed
7.346 km/s
True Right ascension
05h 06m 33s
True Declination
0° 00' 00"
Sunlit
Object was in full shadow at epoch
Visualization orbit readout
Latitude
Unknown
Longitude
Unknown
Altitude
Unknown
Speed
Unknown
Apparent Right ascension
Unknown
Apparent Declination
Unknown
Sunlit
N/A
Visualization observer readout
Local Sidereal Time
10:30:42
Azimuth
Unknown
Elevation
Unknown
Doppler factor
Unknown
Orbital elements
Apogee altitude
941.097 km
Perigee altitude
813.299 km
Semi-major axis
7,255.335 km
Eccentricity
0.00881
Inclination
90.2136°
RAAN
76.6389°
Arg. of periapsis
187.3756°
True anomaly
172.74204°
Mean anomaly
172.6137°
Eccentric anomaly
172.67801°
Mean motion
3.51202 °/min
Orbital period
102.51 mins
BSTAR
0.00037009
Loading maneuver chart data...
Computing Atmospheric mass density...
Loading historical data...
Loading historical data...
Loading historical data...
Loading historical data...
Loading historical data...
Loading historical data...
Loading historical data...

Documentation

Showing up to 5 results
|